Location: Capel Gartheli
(52.1833°N, 4.0667°W)
Time: 04:38:23
(UTC+00:00)

Cosmos 2333 Rocket - Pass Details

Date: 18 February 2020
Orbit: 841 x 861 km, 70.8° (Epoch: 29 March)

Event Time Altitude Azimuth Distance (km) Brightness Sun altitude
Exits shadow 03:19:56 29° 26° (NNE) 1,514 3.8 -37.2°
Drops below altitude 10° 03:22:39 10° 30° (NNE) 2,495 5.3 -36.9°
Sets 03:25:07 0° 32° (NNE) 3,432 6.2 -36.6°
